• In Uzbekistan
  • List of Countries
  • For 7 days
  • Water Temperature
  • Satellite Maps
  • Weather Map
  • Weather Widgets
  • user-avatar
    Login

    Hourly Weather Bishkek

    Today, 27 June, Thursday

    Time Temperature Precipitation Wind Pressure Humidity
    00:00 -1°C° 0 mm 2 mps 486 mmHg 62%
    01:00 -1°C° 0 mm 3 mps 486 mmHg 62%
    02:00 -1°C° 0 mm 3 mps 486 mmHg 63%
    03:00 -1°C° 0 mm 3 mps 486 mmHg 63%
    04:00 -1°C° 0 mm 3 mps 486 mmHg 63%
    05:00 -1°C° 0 mm 3 mps 486 mmHg 60%
    06:00 +2°C° 0 mm 2 mps 488 mmHg 57%
    07:00 +5°C° 0 mm 1 mps 489 mmHg 54%
    08:00 +7°C° 0 mm 1 mps 490 mmHg 50%
    09:00 +8°C° 0 mm 1 mps 491 mmHg 46%
    10:00 +9°C° 0 mm 1 mps 491 mmHg 43%
    11:00 +8°C° 0 mm 2 mps 491 mmHg 39%
    12:00 +9°C° 0.5 mm 2 mps 491 mmHg 41%
    13:00 +9°C° 0.5 mm 2 mps 491 mmHg 42%
    14:00 +10°C° 0.5 mm 3 mps 492 mmHg 44%
    15:00 +9°C° 0.3 mm 3 mps 491 mmHg 44%
    16:00 +9°C° 0.3 mm 3 mps 491 mmHg 44%
    17:00 +9°C° 0.3 mm 3 mps 491 mmHg 43%
    18:00 +7°C° 0.1 mm 2 mps 490 mmHg 48%
    19:00 +5°C° 0.1 mm 2 mps 489 mmHg 53%
    20:00 +4°C° 0.1 mm 1 mps 487 mmHg 59%
    21:00 +2°C° 0 mm 2 mps 487 mmHg 61%
    22:00 +1°C° 0 mm 3 mps 487 mmHg 63%
    23:00 0°C° 0 mm 3 mps 486 mmHg 65%

    Tomorrow, 28 June, Friday

    Time Temperature Precipitation Wind Pressure Humidity
    00:00 0°C° 0 mm 3 mps 486 mmHg 65%
    01:00 0°C° 0 mm 3 mps 486 mmHg 65%
    02:00 -1°C° 0 mm 3 mps 485 mmHg 65%
    03:00 0°C° 0 mm 3 mps 486 mmHg 65%
    04:00 0°C° 0 mm 3 mps 486 mmHg 65%
    05:00 0°C° 0 mm 3 mps 486 mmHg 65%
    06:00 +3°C° 0 mm 2 mps 487 mmHg 60%
    07:00 +5°C° 0 mm 2 mps 489 mmHg 55%
    08:00 +8°C° 0 mm 1 mps 490 mmHg 50%
    09:00 +9°C° 0.3 mm 1 mps 490 mmHg 50%
    10:00 +9°C° 0.3 mm 1 mps 491 mmHg 49%
    11:00 +10°C° 0.3 mm 1 mps 491 mmHg 48%
    12:00 +10°C° 1 mm 1 mps 490 mmHg 50%
    13:00 +9°C° 1 mm 2 mps 490 mmHg 52%
    14:00 +9°C° 1 mm 2 mps 490 mmHg 54%
    15:00 +8°C° 0.7 mm 2 mps 490 mmHg 54%
    16:00 +8°C° 0.7 mm 2 mps 490 mmHg 54%
    17:00 +9°C° 0.7 mm 1 mps 489 mmHg 53%
    18:00 +7°C° 0 mm 1 mps 488 mmHg 57%
    19:00 +5°C° 0 mm 1 mps 487 mmHg 60%
    20:00 +3°C° 0 mm 1 mps 486 mmHg 63%
    21:00 +3°C° 0 mm 1 mps 486 mmHg 62%
    22:00 +1°C° 0 mm 2 mps 486 mmHg 61%
    23:00 +1°C° 0 mm 2 mps 486 mmHg 60%

    Day after tomorrow, 29 June, Saturday

    Time Temperature Precipitation Wind Pressure Humidity
    00:00 +1°C° 0 mm 2 mps 486 mmHg 60%
    01:00 0°C° 0 mm 3 mps 486 mmHg 59%
    02:00 0°C° 0 mm 3 mps 486 mmHg 59%
    03:00 +1°C° 0 mm 2 mps 486 mmHg 59%
    04:00 +1°C° 0 mm 2 mps 486 mmHg 60%
    05:00 +1°C° 0 mm 2 mps 486 mmHg 61%
    06:00 +4°C° 0 mm 1 mps 488 mmHg 55%
    07:00 +7°C° 0 mm 1 mps 489 mmHg 50%
    08:00 +9°C° 0 mm 1 mps 491 mmHg 44%
    09:00 +10°C° 0.1 mm 1 mps 491 mmHg 44%
    10:00 +11°C° 0.1 mm 1 mps 492 mmHg 43%
    11:00 +12°C° 0.1 mm 2 mps 492 mmHg 42%
    12:00 +12°C° 0.7 mm 2 mps 492 mmHg 44%
    13:00 +12°C° 0.7 mm 2 mps 492 mmHg 46%
    14:00 +12°C° 0.7 mm 2 mps 491 mmHg 48%
    15:00 +10°C° 0.6 mm 2 mps 491 mmHg 49%
    16:00 +10°C° 0.6 mm 2 mps 491 mmHg 49%
    17:00 +9°C° 0.6 mm 2 mps 490 mmHg 50%
    18:00 +8°C° 0 mm 2 mps 490 mmHg 52%
    19:00 +6°C° 0 mm 2 mps 489 mmHg 54%
    20:00 +4°C° 0 mm 2 mps 488 mmHg 57%
    21:00 +4°C° 0 mm 2 mps 487 mmHg 57%
    22:00 +3°C° 0 mm 2 mps 487 mmHg 58%
    23:00 +2°C° 0 mm 3 mps 487 mmHg 59%

    30 June, Sunday

    Time Temperature Precipitation Wind Pressure Humidity
    00:00 +2°C° 0 mm 3 mps 487 mmHg 58%
    01:00 +2°C° 0 mm 3 mps 486 mmHg 58%
    02:00 +2°C° 0 mm 3 mps 486 mmHg 57%
    03:00 +3°C° 0 mm 2 mps 486 mmHg 57%
    04:00 +3°C° 0 mm 2 mps 487 mmHg 57%
    05:00 +3°C° 0 mm 2 mps 487 mmHg 57%
    06:00 +5°C° 0 mm 2 mps 488 mmHg 52%
    07:00 +8°C° 0 mm 1 mps 490 mmHg 47%
    08:00 +11°C° 0 mm 1 mps 491 mmHg 42%
    09:00 +11°C° 0.1 mm 1 mps 492 mmHg 42%
    10:00 +12°C° 0.1 mm 2 mps 492 mmHg 42%
    11:00 +13°C° 0.1 mm 2 mps 492 mmHg 43%
    12:00 +13°C° 0.7 mm 2 mps 492 mmHg 44%
    13:00 +13°C° 0.7 mm 2 mps 492 mmHg 46%
    14:00 +13°C° 0.7 mm 2 mps 492 mmHg 47%
    15:00 +13°C° 0.5 mm 2 mps 492 mmHg 46%
    16:00 +13°C° 0.5 mm 2 mps 492 mmHg 45%
    17:00 +13°C° 0.5 mm 2 mps 492 mmHg 45%
    18:00 +10°C° 0 mm 2 mps 491 mmHg 49%
    19:00 +9°C° 0 mm 1 mps 490 mmHg 53%
    20:00 +7°C° 0 mm 1 mps 489 mmHg 57%
    21:00 +6°C° 0 mm 2 mps 489 mmHg 60%
    22:00 +5°C° 0 mm 2 mps 489 mmHg 63%
    23:00 +4°C° 0 mm 3 mps 489 mmHg 66%

    1 July, Monday

    Time Temperature Precipitation Wind Pressure Humidity
    00:00 +3°C° 0 mm 3 mps 489 mmHg 67%
    01:00 +4°C° 0 mm 2 mps 489 mmHg 69%
    02:00 +4°C° 0 mm 2 mps 488 mmHg 70%
    03:00 +4°C° 0 mm 2 mps 489 mmHg 69%
    04:00 +4°C° 0 mm 2 mps 489 mmHg 69%
    05:00 +5°C° 0 mm 2 mps 489 mmHg 68%
    06:00 +7°C° 0 mm 1 mps 490 mmHg 64%
    07:00 +8°C° 0 mm 1 mps 491 mmHg 59%
    08:00 +9°C° 0 mm 0 mps 492 mmHg 54%
    09:00 +10°C° 0.5 mm 1 mps 492 mmHg 55%
    10:00 +11°C° 0.5 mm 1 mps 492 mmHg 56%
    11:00 +10°C° 0.5 mm 2 mps 493 mmHg 57%
    12:00 +10°C° 1.1 mm 2 mps 492 mmHg 58%
    13:00 +10°C° 1.1 mm 2 mps 492 mmHg 59%
    14:00 +10°C° 1.1 mm 2 mps 491 mmHg 61%
    15:00 +9°C° 1.2 mm 3 mps 491 mmHg 63%
    16:00 +8°C° 1.2 mm 3 mps 490 mmHg 66%
    17:00 +7°C° 1.2 mm 3 mps 490 mmHg 69%
    18:00 +5°C° 0.3 mm 3 mps 489 mmHg 70%
    19:00 +5°C° 0.3 mm 2 mps 489 mmHg 71%
    20:00 +5°C° 0.3 mm 1 mps 489 mmHg 71%
    21:00 +5°C° 0 mm 1 mps 489 mmHg 70%
    22:00 +5°C° 0 mm 1 mps 489 mmHg 69%
    23:00 +5°C° 0 mm 1 mps 489 mmHg 67%

    2 July, Tuesday

    Time Temperature Precipitation Wind Pressure Humidity
    00:00 +4°C° 0 mm 1 mps 489 mmHg 67%
    01:00 +4°C° 0 mm 1 mps 489 mmHg 67%
    02:00 +3°C° 0 mm 1 mps 488 mmHg 67%
    03:00 +2°C° 0 mm 2 mps 488 mmHg 67%
    04:00 +2°C° 0 mm 2 mps 488 mmHg 66%
    05:00 +2°C° 0 mm 2 mps 488 mmHg 65%
    06:00 +5°C° 0 mm 2 mps 490 mmHg 58%
    07:00 +8°C° 0 mm 1 mps 492 mmHg 50%
    08:00 +10°C° 0 mm 0 mps 494 mmHg 43%
    09:00 +12°C° 0 mm 1 mps 494 mmHg 40%
    10:00 +13°C° 0 mm 2 mps 495 mmHg 38%
    11:00 +14°C° 0 mm 2 mps 495 mmHg 35%
    12:00 +14°C° 0 mm 2 mps 495 mmHg 35%
    13:00 +15°C° 0 mm 2 mps 495 mmHg 35%
    14:00 +14°C° 0 mm 3 mps 495 mmHg 35%
    15:00 +15°C° 0 mm 2 mps 495 mmHg 33%
    16:00 +15°C° 0 mm 2 mps 495 mmHg 32%
    17:00 +15°C° 0 mm 2 mps 495 mmHg 31%
    18:00 +12°C° 0 mm 2 mps 493 mmHg 37%
    19:00 +8°C° 0 mm 2 mps 492 mmHg 42%
    20:00 +6°C° 0 mm 1 mps 490 mmHg 48%
    21:00 +5°C° 0 mm 2 mps 490 mmHg 46%
    22:00 +5°C° 0 mm 2 mps 490 mmHg 45%
    23:00 +4°C° 0 mm 3 mps 490 mmHg 43%
    Show more